Regional Weather Roundup
Issued by NWS Bismarck, ND

Home | Current Version | Previous Version | Text Only | Print | Product List | Glossary On
Versions: 1 2 3 4 5 6 7 8 9 10 11 12 13 14 15 16 17 18 19 20 21 22 23 24 25 26 27 28 29 30 31 32 33 34 35 36 37 38 39 40 41 42 43 44 45 46 47 48 49 50
000
ASUS43 KBIS 221920
RWRBIS

NWR BROADCAST TEXT
NATIONAL WEATHER SERVICE BISMARCK ND
100 PM CST MON DEC 22 2014

NOTE: "FAIR" INDICATES FEW OR NO CLOUDS BELOW 12,000 FEET WITH NO
SIGNIFICANT WEATHER AND/OR OBSTRUCTIONS TO VISIBILITY.


CITY           SKY/WX    TMP DP  RH WIND       PRES   REMARKS
WILLISTON      CLOUDY    27  22  81 N17       29.62S WCI  14
MINOT          CLOUDY    29  26  89 N9        29.56R
MINOT AFB      NOT AVBL
BISMARCK       CLOUDY    30  28  92 N10       29.51R
DICKINSON      SNOW      26  23  88 NW22      29.52R VSB 1/4 WCI  12
GARRISON         N/A     29  27  92 NE9       29.53R
HETTINGER ARPT LGT SNOW  27  22  81 NW24G37   29.53R WCI  12
JAMESTOWN      SNOW      34  33  96 NE9       29.45F VSB 1/4
BEACH          LGT SNOW  25  25 100 NW26      29.61R WCI   9
CARRINGTON     FOG       32  32 100 MISG      29.50S VSB 1/4
CROSBY         CLOUDY    25  25 100 NW14      29.63R FOG     WCI  13
HAZEN          CLOUDY    30  28  93 N10       29.55R
MANDAN         CLOUDY    28  28 100 N9        29.50S WCI  20
OAKES            N/A     37  37 100 E14       29.43S
STANLEY        CLOUDY    27  27 100 NE9       29.57R FOG     WCI  17
TIOGA          CLOUDY    28  28 100 N12       29.61R FOG     WCI  18
WATFORD CITY   CLOUDY    25  25 100 NW13G21   29.59R WCI  13
$$

CITY           SKY/WX    TMP DP  RH WIND       PRES   REMARKS
GRAND FORKS    LGT RAIN  37  36  96 E8        29.53S FOG
GRAND FORKS AF NOT AVBL
DEVILS LAKE    CLOUDY    34  32  93 NE9       29.52R VSB 3/4
FARGO          LGT RAIN  41  38  89 SE9       29.49F
CANDO          CLOUDY    32  32 100 NE8       29.55R FOG
CAVALIER       CLOUDY    34  34 100 NE7         N/A  FOG
GWINNER        CLOUDY    39  39 100 E12       29.45F VSB 3/4
LANGDON          N/A    N/A N/A N/A MISG        N/A
ROLLA          MIX PCPN  30  30 100 N13       29.56S
$$

CITY           SKY/WX    TMP DP  RH WIND       PRES   REMARKS
ABERDEEN       CLOUDY    35  33  92 NE5       29.41S FOG
MOBRIDGE       LGT SNOW  32  29  88 N14       29.42S FOG
BUFFALO          N/A     32  29  88 NW25G35   29.47R WCI  19
RAPID CITY     PTSUNNY   44  22  41 NW41G51   29.50S
GLASGOW        CLOUDY    33  27  78 NW13      29.71R
SIDNEY         CLOUDY    27  21  80 NW16G23   29.67R WCI  14
WOLF POINT     LGT SNOW  29  23  78 NW14      29.72R VSB 3/4 WCI  18
GLENDIVE       CLOUDY    27  21  80 NW24G31   29.66R WCI  12
MILES CITY     CLOUDY    35  27  72 NW26G36   29.70R
BAKER          LGT SNOW  28  27  96 NW24G33   29.60R VSB 3/4 WCI  14
$$

CITY           SKY/WX    TMP DP  RH WIND       PRES   REMARKS
BILLINGS       PTSUNNY   39  24  55 W21G26    29.81R
GREAT FALLS    CLOUDY    39  23  52 W12       29.87R
REGINA         CLOUDY    25  23  93 N12       29.71R FOG     WCI  14
ESTEVAN        CLOUDY    28  28 100 N6        29.61R FOG
$$



USA.gov is the U.S. government's official web portal to all federal, state and local government web resources and services.